Time,TemperatureF,DewpointF,PressureIn,WindDirection,WindDirectionDegrees,WindSpeedMPH,WindSpeedGustMPH,Humidity,HourlyPrecipIn,Conditions,Clouds,dailyrainin,SolarRadiationWatts/m^2,SoftwareType,DateUTC
2013-03-07 00:00:00,29.6,26.0,30.32,NNW,327,0.0,-999.0,87,-99.99,,,0.00,0,weatherlink.com 1.10,2013-03-07 06:00:00,
2013-03-07 00:15:00,29.4,26.0,30.32,NNW,327,0.0,-999.0,87,-99.99,,,0.00,0,weatherlink.com 1.10,2013-03-07 06:15:00,
2013-03-07 00:30:00,29.2,26.0,30.33,NNW,327,0.0,-999.0,87,-99.99,,,0.00,0,weatherlink.com 1.10,2013-03-07 06:30:00,
2013-03-07 00:45:00,29.0,26.0,30.32,NNW,327,0.0,-999.0,87,-99.99,,,0.00,0,weatherlink.com 1.10,2013-03-07 06:45:00,
2013-03-07 01:00:00,28.8,25.0,30.32,NNW,327,0.0,-999.0,87,-99.99,,,0.00,0,weatherlink.com 1.10,2013-03-07 07:00:00,
2013-03-07 01:16:00,28.6,25.0,30.32,NNW,327,0.0,-999.0,87,-99.99,,,0.00,0,weatherlink.com 1.10,2013-03-07 07:16:00,
2013-03-07 01:31:00,28.5,25.0,30.33,NNW,327,0.0,-999.0,87,-99.99,,,0.00,0,weatherlink.com 1.10,2013-03-07 07:31:00,
2013-03-07 01:46:00,28.4,25.0,30.33,NNW,327,0.0,-999.0,88,-99.99,,,0.00,0,weatherlink.com 1.10,2013-03-07 07:46:00,
2013-03-07 02:01:00,28.4,26.0,30.34,NNW,327,0.0,-999.0,89,-99.99,,,0.00,0,weatherlink.com 1.10,2013-03-07 08:01:00,
2013-03-07 02:16:00,28.4,26.0,30.34,NNW,327,0.0,-999.0,89,-99.99,,,0.00,0,weatherlink.com 1.10,2013-03-07 08:16:00,
2013-03-07 02:31:00,28.5,26.0,30.33,NNW,327,0.0,-999.0,89,-99.99,,,0.00,0,weatherlink.com 1.10,2013-03-07 08:31:00,
2013-03-07 02:46:00,28.5,26.0,30.34,NNW,327,0.0,-999.0,89,-99.99,,,0.00,0,weatherlink.com 1.10,2013-03-07 08:46:00,
2013-03-07 03:01:00,28.5,26.0,30.34,NNW,327,0.0,-999.0,90,-99.99,,,0.00,0,weatherlink.com 1.10,2013-03-07 09:01:00,
2013-03-07 03:16:00,28.7,26.0,30.34,NNW,327,0.0,-999.0,90,-99.99,,,0.00,0,weatherlink.com 1.10,2013-03-07 09:16:00,
2013-03-07 03:31:00,28.8,26.0,30.34,NNW,327,0.0,-999.0,90,-99.99,,,0.00,0,weatherlink.com 1.10,2013-03-07 09:31:00,
2013-03-07 03:46:00,28.9,26.0,30.34,NNW,327,0.0,-999.0,90,-99.99,,,0.00,0,weatherlink.com 1.10,2013-03-07 09:46:00,
2013-03-07 04:01:00,29.0,27.0,30.35,NNW,327,0.0,-999.0,90,-99.99,,,0.00,0,weatherlink.com 1.10,2013-03-07 10:01:00,
2013-03-07 04:16:00,29.0,27.0,30.35,NNW,327,0.0,-999.0,90,-99.99,,,0.00,0,weatherlink.com 1.10,2013-03-07 10:16:00,
2013-03-07 04:31:00,29.1,27.0,30.36,NNW,327,0.0,-999.0,90,-99.99,,,0.00,0,weatherlink.com 1.10,2013-03-07 10:31:00,
2013-03-07 04:46:00,29.1,27.0,30.36,NNW,327,0.0,-999.0,90,-99.99,,,0.00,0,weatherlink.com 1.10,2013-03-07 10:46:00,
2013-03-07 05:01:00,29.0,27.0,30.36,NNW,327,0.0,-999.0,90,-99.99,,,0.00,0,weatherlink.com 1.10,2013-03-07 11:01:00,
2013-03-07 05:16:00,29.0,27.0,30.37,NNW,327,0.0,-999.0,90,-99.99,,,0.00,0,weatherlink.com 1.10,2013-03-07 11:16:00,
2013-03-07 05:31:00,29.0,27.0,30.37,NNW,327,0.0,-999.0,90,-99.99,,,0.00,0,weatherlink.com 1.10,2013-03-07 11:31:00,
2013-03-07 06:01:00,29.4,27.0,30.38,NNW,327,0.0,-999.0,90,-99.99,,,0.00,0,weatherlink.com 1.10,2013-03-07 12:01:00,
2013-03-07 06:16:00,29.5,27.0,30.38,NNW,327,0.0,-999.0,91,-99.99,,,0.00,0,weatherlink.com 1.10,2013-03-07 12:16:00,
2013-03-07 06:31:00,29.7,27.0,30.39,NNW,327,0.0,-999.0,91,-99.99,,,0.00,0,weatherlink.com 1.10,2013-03-07 12:31:00,
2013-03-07 06:46:00,29.9,28.0,30.39,NNW,327,0.0,-999.0,91,-99.99,,,0.00,11,weatherlink.com 1.10,2013-03-07 12:46:00,
2013-03-07 07:01:00,30.1,28.0,30.39,NNW,327,0.0,-999.0,91,-99.99,,,0.00,23,weatherlink.com 1.10,2013-03-07 13:01:00,
2013-03-07 07:16:00,30.4,28.0,30.39,NNW,327,0.0,-999.0,90,-99.99,,,0.00,37,weatherlink.com 1.10,2013-03-07 13:16:00,
2013-03-07 07:31:00,30.8,29.0,30.40,NNW,327,0.0,-999.0,91,-99.99,,,0.00,56,weatherlink.com 1.10,2013-03-07 13:31:00,
2013-03-07 07:46:00,31.4,29.0,30.40,NNW,327,0.0,-999.0,91,-99.99,,,0.00,90,weatherlink.com 1.10,2013-03-07 13:46:00,
2013-03-07 08:01:00,32.1,30.0,30.41,NNW,327,0.0,-999.0,90,-99.99,,,0.00,95,weatherlink.com 1.10,2013-03-07 14:01:00,
2013-03-07 08:16:00,33.1,30.0,30.41,NNW,327,0.0,-999.0,89,-99.99,,,0.00,109,weatherlink.com 1.10,2013-03-07 14:16:00,
2013-03-07 08:31:00,34.6,30.0,30.41,NNW,327,0.0,-999.0,84,-99.99,,,0.00,104,weatherlink.com 1.10,2013-03-07 14:31:00,
2013-03-07 08:46:00,35.6,30.0,30.41,NNW,327,0.0,-999.0,79,-99.99,,,0.00,125,weatherlink.com 1.10,2013-03-07 14:46:00,
2013-03-07 09:01:00,37.2,31.0,30.41,SW,229,0.0,-999.0,79,-99.99,,,0.00,127,weatherlink.com 1.10,2013-03-07 15:01:00,
2013-03-07 09:17:00,38.6,32.0,30.41,ESE,115,0.0,-999.0,76,-99.99,,,0.00,174,weatherlink.com 1.10,2013-03-07 15:17:00,
2013-03-07 09:32:00,39.0,31.0,30.40,SE,133,0.0,-999.0,74,-99.99,,,0.00,301,weatherlink.com 1.10,2013-03-07 15:32:00,
2013-03-07 09:47:00,39.8,32.0,30.41,SE,133,0.0,-999.0,73,-99.99,,,0.00,422,weatherlink.com 1.10,2013-03-07 15:47:00,
2013-03-07 10:02:00,39.5,30.0,30.42,SE,129,3.0,-999.0,70,-99.99,,,0.00,490,weatherlink.com 1.10,2013-03-07 16:02:00,
2013-03-07 10:17:00,41.4,32.0,30.41,SSW,207,0.0,-999.0,70,-99.99,,,0.00,533,weatherlink.com 1.10,2013-03-07 16:17:00,
2013-03-07 10:47:00,43.9,32.0,30.42,NW,313,1.0,-999.0,64,-99.99,,,0.00,629,weatherlink.com 1.10,2013-03-07 16:47:00,
2013-03-07 11:02:00,43.0,31.0,30.41,West,259,0.0,-999.0,64,-99.99,,,0.00,763,weatherlink.com 1.10,2013-03-07 17:02:00,
2013-03-07 11:17:00,45.2,31.0,30.41,East,96,0.0,-999.0,58,-99.99,,,0.00,772,weatherlink.com 1.10,2013-03-07 17:17:00,
2013-03-07 11:32:00,45.1,31.0,30.40,WNW,300,0.0,-999.0,59,-99.99,,,0.00,772,weatherlink.com 1.10,2013-03-07 17:32:00,
2013-03-07 11:47:00,46.7,33.0,30.40,South,179,0.0,-999.0,59,-99.99,,,0.00,810,weatherlink.com 1.10,2013-03-07 17:47:00,
2013-03-07 12:02:00,47.3,33.0,30.40,WNW,300,2.0,-999.0,57,-99.99,,,0.00,826,weatherlink.com 1.10,2013-03-07 18:02:00,
2013-03-07 12:17:00,47.4,34.0,30.39,WNW,299,4.0,-999.0,61,-99.99,,,0.00,823,weatherlink.com 1.10,2013-03-07 18:17:00,
2013-03-07 12:32:00,47.2,32.0,30.38,SSE,161,0.0,-999.0,56,-99.99,,,0.00,826,weatherlink.com 1.10,2013-03-07 18:32:00,
2013-03-07 12:47:00,47.8,32.0,30.37,SE,130,0.0,-999.0,55,-99.99,,,0.00,819,weatherlink.com 1.10,2013-03-07 18:47:00,
2013-03-07 13:02:00,48.2,33.0,30.37,SE,125,0.0,-999.0,56,-99.99,,,0.00,802,weatherlink.com 1.10,2013-03-07 19:02:00,
2013-03-07 13:17:00,48.5,33.0,30.36,NNW,329,0.0,-999.0,55,-99.99,,,0.00,793,weatherlink.com 1.10,2013-03-07 19:17:00,
2013-03-07 13:32:00,50.0,36.0,30.35,SSE,161,1.0,-999.0,59,-99.99,,,0.00,773,weatherlink.com 1.10,2013-03-07 19:32:00,
2013-03-07 13:47:00,49.4,33.0,30.34,SSE,162,0.0,-999.0,54,-99.99,,,0.00,752,weatherlink.com 1.10,2013-03-07 19:47:00,
2013-03-07 14:02:00,49.7,33.0,30.34,SSW,203,1.0,-999.0,53,-99.99,,,0.00,722,weatherlink.com 1.10,2013-03-07 20:02:00,
2013-03-07 14:17:00,50.7,33.0,30.33,North,355,0.0,-999.0,51,-99.99,,,0.00,134,weatherlink.com 1.10,2013-03-07 20:17:00,
2013-03-07 14:32:00,50.6,34.0,30.33,ESE,111,0.0,-999.0,54,-99.99,,,0.00,656,weatherlink.com 1.10,2013-03-07 20:32:00,
2013-03-07 15:02:00,51.1,35.0,30.33,SE,142,0.0,-999.0,54,-99.99,,,0.00,216,weatherlink.com 1.10,2013-03-07 21:02:00,
2013-03-07 15:17:00,50.4,34.0,30.32,NE,49,1.0,-999.0,53,-99.99,,,0.00,200,weatherlink.com 1.10,2013-03-07 21:17:00,
2013-03-07 15:32:00,50.0,32.0,30.32,NNW,340,0.0,-999.0,51,-99.99,,,0.00,255,weatherlink.com 1.10,2013-03-07 21:32:00,
2013-03-07 15:47:00,50.1,35.0,30.32,SE,124,0.0,-999.0,56,-99.99,,,0.00,144,weatherlink.com 1.10,2013-03-07 21:47:00,
2013-03-07 16:02:00,49.8,33.0,30.32,SE,124,0.0,-999.0,53,-99.99,,,0.00,102,weatherlink.com 1.10,2013-03-07 22:02:00,
2013-03-07 16:17:00,49.8,33.0,30.32,SE,125,0.0,-999.0,53,-99.99,,,0.00,63,weatherlink.com 1.10,2013-03-07 22:17:00,
2013-03-07 16:32:00,49.5,34.0,30.31,SE,125,0.0,-999.0,56,-99.99,,,0.00,35,weatherlink.com 1.10,2013-03-07 22:32:00,
2013-03-07 16:47:00,49.0,35.0,30.31,SE,125,0.0,-999.0,58,-99.99,,,0.00,76,weatherlink.com 1.10,2013-03-07 22:47:00,
2013-03-07 17:02:00,48.5,34.0,30.31,SE,125,0.0,-999.0,58,-99.99,,,0.00,40,weatherlink.com 1.10,2013-03-07 23:02:00,
2013-03-07 17:17:00,48.1,34.0,30.31,SE,125,0.0,-999.0,59,-99.99,,,0.00,37,weatherlink.com 1.10,2013-03-07 23:17:00,
2013-03-07 17:32:00,47.1,36.0,30.31,SE,125,0.0,-999.0,65,-99.99,,,0.00,26,weatherlink.com 1.10,2013-03-07 23:32:00,
2013-03-07 17:47:00,45.7,35.0,30.31,SE,125,0.0,-999.0,66,-99.99,,,0.00,9,weatherlink.com 1.10,2013-03-07 23:47:00,
2013-03-07 18:02:00,44.4,34.0,30.31,SE,125,0.0,-999.0,67,-99.99,,,0.00,0,weatherlink.com 1.10,2013-03-08 00:02:00,
2013-03-07 18:17:00,43.5,34.0,30.30,SE,125,0.0,-999.0,68,-99.99,,,0.00,0,weatherlink.com 1.10,2013-03-08 00:17:00,
2013-03-07 18:47:00,41.1,33.0,30.31,SE,125,0.0,-999.0,74,-99.99,,,0.00,0,weatherlink.com 1.10,2013-03-08 00:47:00,
2013-03-07 19:02:00,39.8,33.0,30.31,SE,125,0.0,-999.0,78,-99.99,,,0.00,0,weatherlink.com 1.10,2013-03-08 01:02:00,
2013-03-07 19:17:00,39.2,33.0,30.31,SE,125,0.0,-999.0,78,-99.99,,,0.00,0,weatherlink.com 1.10,2013-03-08 01:17:00,
2013-03-07 19:32:00,38.7,33.0,30.31,SE,125,0.0,-999.0,79,-99.99,,,0.00,0,weatherlink.com 1.10,2013-03-08 01:32:00,
2013-03-07 19:47:00,38.0,33.0,30.32,SE,125,0.0,-999.0,81,-99.99,,,0.00,0,weatherlink.com 1.10,2013-03-08 01:47:00,
2013-03-07 20:02:00,38.0,32.0,30.31,SE,125,0.0,-999.0,80,-99.99,,,0.00,0,weatherlink.com 1.10,2013-03-08 02:02:00,
2013-03-07 20:17:00,37.2,32.0,30.31,SE,125,0.0,-999.0,81,-99.99,,,0.00,0,weatherlink.com 1.10,2013-03-08 02:17:00,
2013-03-07 20:32:00,36.8,32.0,30.30,SE,125,0.0,-999.0,82,-99.99,,,0.00,0,weatherlink.com 1.10,2013-03-08 02:32:00,
2013-03-07 20:47:00,37.0,32.0,30.31,SE,125,0.0,-999.0,81,-99.99,,,0.00,0,weatherlink.com 1.10,2013-03-08 02:47:00,
2013-03-07 21:02:00,36.5,32.0,30.31,SE,125,0.0,-999.0,82,-99.99,,,0.00,0,weatherlink.com 1.10,2013-03-08 03:02:00,
2013-03-07 21:18:00,35.6,31.0,30.31,SE,125,0.0,-999.0,84,-99.99,,,0.00,0,weatherlink.com 1.10,2013-03-08 03:18:00,
2013-03-07 21:33:00,35.7,31.0,30.32,SE,125,0.0,-999.0,84,-99.99,,,0.00,0,weatherlink.com 1.10,2013-03-08 03:33:00,
2013-03-07 21:48:00,35.3,31.0,30.32,SE,125,0.0,-999.0,85,-99.99,,,0.00,0,weatherlink.com 1.10,2013-03-08 03:48:00,
2013-03-07 22:03:00,34.9,31.0,30.32,SE,125,0.0,-999.0,86,-99.99,,,0.00,0,weatherlink.com 1.10,2013-03-08 04:03:00,
2013-03-07 22:18:00,34.2,31.0,30.32,SE,125,0.0,-999.0,86,-99.99,,,0.00,0,weatherlink.com 1.10,2013-03-08 04:18:00,
2013-03-07 22:33:00,34.1,31.0,30.32,SE,125,0.0,-999.0,88,-99.99,,,0.00,0,weatherlink.com 1.10,2013-03-08 04:33:00,
2013-03-07 22:48:00,33.9,31.0,30.32,SE,125,0.0,-999.0,87,-99.99,,,0.00,0,weatherlink.com 1.10,2013-03-08 04:48:00,
2013-03-07 23:03:00,34.1,31.0,30.32,SE,125,0.0,-999.0,87,-99.99,,,0.00,0,weatherlink.com 1.10,2013-03-08 05:03:00,
2013-03-07 23:18:00,33.2,30.0,30.32,SE,125,0.0,-999.0,88,-99.99,,,0.00,0,weatherlink.com 1.10,2013-03-08 05:18:00,
2013-03-07 23:33:00,33.2,30.0,30.32,SE,125,0.0,-999.0,87,-99.99,,,0.00,0,weatherlink.com 1.10,2013-03-08 05:33:00,
2013-03-07 23:48:00,32.9,30.0,30.31,SE,125,0.0,-999.0,88,-99.99,,,0.00,0,weatherlink.com 1.10,2013-03-08 05:48:00,